Regional Weather Roundup
Issued by NWS Grand Forks, ND

Home | Current Version | Previous Version | Text Only | Print | Product List | Glossary Off
Versions: 1 2 3 4 5 6 7 8 9 10 11 12 13 14 15 16 17 18 19 20 21 22 23 24 25 26 27 28 29 30 31 32 33 34 35 36 37 38 39 40 41 42 43 44 45 46 47 48 49 50

000
ASUS43 KFGF 020431
RWRFGF
PRAIRIE TO PINES  WEATHER ROUNDUP
NATIONAL WEATHER SERVICE EASTERN NORTH DAKOTA/GRAND FORKS ND
1100 PM CDT MON SEP 01 2014

 **SATELLITE DATA USED TO AUGMENT SKY COVER AT AUTOMATED STATIONS**
 *****  WEATHER ACROSS EASTERN NORTH DAKOTA  *****

CITY           SKY/WX    TMP DP  RH WIND       PRES   REMARKS
GRAND FORKS    CLEAR     55  51  86 SW5       29.77R
GRAND FRKS AFB CLEAR     53  52  96 W6        29.78R
GRAND FRKS NWS   N/A     54 N/A N/A W3          N/A
DEVILS LAKE    CLEAR     61  50  67 SW10      29.78R
FARGO          CLEAR     58  54  86 CALM      29.80S
WAHPETON ARPT  PTCLDY    55  52  88 CALM      29.82S
$$

 ***** WEATHER ACROSS CENTRAL AND WESTERN NORTH DAKOTA  *****

CITY           SKY/WX    TMP DP  RH WIND       PRES   REMARKS
BISMARCK       CLEAR     57  51  80 SW6       29.86F
MINOT          CLEAR     58  47  66 SW8       29.81R
JAMESTOWN      CLEAR     56  50  80 W3        29.83S
MINOT AFB      CLEAR     53  50  89 W10       29.80R
GARRISON         N/A     55  50  83 W7        29.83S
WILLISTON      PTCLDY    58  48  69 SW6       29.83S
DICKINSON      CLEAR     51  45  79 SW7       29.88R
HETTINGER      CLEAR     52  46  80 CALM      29.93R
$$

 *****  OTHER AIRPORT OBSERVATIONS IN OUR AREA  *****

CITY           SKY/WX    TMP DP  RH WIND       PRES   REMARKS
WALHALLA         N/A     57  48  72 SW3       29.75R
GRAFTON AIRPOR FAIR      54  50  87 W8        29.76R
VALLEY CITY AR FAIR      57  57 100 CALM      29.82S
CANDO          FAIR      50  48  93 SW8       29.79S
CAVALIER APRT  FAIR      55  50  82 W6        29.75R
GWINNER        CLEAR     57  55  94 W6        29.84S
SHEYENNE NWR     N/A     53  52  96 CALM      29.95S
ROLLA          FAIR      50  50 100 W8        29.79S
 ***** THE ABOVE OBSERVATIONS ARE NON NWS ARE NOT QUALITY
       CONTROLLED AND MAY MIS-REPORT RAIN FOR SNOW...
$$

  *****  WEATHER ACROSS NORTHERN MINNESOTA  *****

CITY           SKY/WX    TMP DP  RH WIND       PRES   REMARKS
FLAG ISLAND    CLEAR     57  54  88 SW15      29.69S
WARROAD        CLEAR     55  52  88 SW8       29.73S
ROSEAU           N/A     55  52  88 SW8       29.73F
HALLOCK        CLEAR     55  52  88 SW5       29.74R
THF RVR FALLS  CLEAR     57  54  88 SW10      29.78S
BAUDETTE       CLEAR     51  49  92 SW3       29.73R
WASKISH        CLEAR     55  54  94 S3        29.76R
CROOKSTON      PTCLDY    55  54  94 SW7       29.79S
$$
  *****  WEATHER ACROSS CENTRAL AND WEST MINNESOTA  *****

CITY           SKY/WX    TMP DP  RH WIND       PRES   REMARKS
FOSSTON        CLEAR     50  48  93 S6        29.80S
BEMIDJI        CLEAR     55  50  83 W8        29.79R
PARK RAPIDS    PTCLDY    53  52  96 W5        29.80S
ELBOW LAKE     FAIR      57  54  88 SE3       29.82S
WADENA         PTCLDY    54  52  94 CALM      29.80F
DETROIT LAKES  CLEAR     55  54  94 CALM      29.83R
MOORHEAD       CLEAR     57  57 100 CALM      29.81F
FERGUS FALLS   CLEAR     55  54  94 CALM      29.82S
MORRIS MN      MOCLDY    63  55  77 W7        29.81S
STAPLES        MOCLDY    54  52  94 CALM      29.80F
$$
  *****  WEATHER ELSEWHERE ACROSS MINNESOTA  *****

CITY           SKY/WX    TMP DP  RH WIND       PRES   REMARKS
DULUTH         PTCLDY    57  50  77 W7        29.77S
INTRNTL FALLS  CLEAR     48  47  96 SW3       29.73R
ELY            CLEAR     54  50  87 S3        29.74R
CLOQUET        MOCLDY    57  52  82 SW6       29.77R
WHEATON        MOCLDY    57  54  88 SW3       29.84S
BRAINERD       MOCLDY    55  54  96 SW5       29.80R
HIBBING        CLOUDY    53  50  89 CALM      29.76R
ALEXANDRIA     PTCLDY    60  54  80 S3        29.84S
SAINT CLOUD    PTCLDY    65  53  65 N6        29.81R
MINNEAPOLIS    PTCLDY    67  58  72 SW3       29.81S
$$

  *****  WEATHER ACROSS SOUTH DAKOTA  *****

CITY           SKY/WX    TMP DP  RH WIND       PRES   REMARKS
SIOUX FALLS    CLOUDY    64  56  75 W8        29.89R
BROOKINGS      NOT AVBL
WATERTOWN      CLOUDY    60  52  74 W7        29.86S
HURON          CLOUDY    60  55  83 W9        29.87S
SISSETON         N/A     63  55  75 W6        29.83S
ABERDEEN       CLOUDY    56  56 100 S6        29.85S
MITCHELL       CLOUDY    61  58  90 SW7       29.89F
PIERRE         MOCLDY    59  52  77 W5        29.90R
MOBRIDGE       PTCLDY    56  53  90 N7        29.87R
RAPID CITY     CLEAR     53  48  83 W6        30.00R
$$

  *****  SOME WEATHER IN NEARBY STATES *****

CITY           SKY/WX    TMP DP  RH WIND       PRES   REMARKS
GLASGOW MT     MOCLDY    63  49  60 S8        29.81F
GREAT FALLS MT CLEAR     53  37  54 W12       29.92R
CHEYENNE WY    CLEAR     53  44  71 N6        30.17R
SCOTTSBLUFF NE CLEAR     53  48  83 NW5       30.08R
OMAHA NE       CLEAR     65  62  90 N6        29.87S
DES MOINES IA  PTCLDY    70  63  78 SW5       29.86S
DAVENPORT IA   CLOUDY    69  66  90 W6        29.89R
CHICAGO IL     CLOUDY    72  66  81 SW6       29.85R
EAU CLAIRE WI  CLEAR     61  58  90 W5        29.80R
LA CROSSE WI   PTCLDY    65  60  84 SE6       29.81S
$$

  *****  SOME NATIONAL WEATHER *****

CITY           SKY/WX    TMP DP  RH WIND       PRES   REMARKS
LA GUARDIA NY  PTCLDY    81  73  76 SW9       29.93F
RALEIGH NC     PTCLDY    78  70  76 SW6       30.05F
ATLANTA GA     MOCLDY    75  72  90 S3        30.12F
NEW ORLEANS LA MOCLDY    81  76  84 SE5       30.03F
OKLAHOMA CITY  PTCLDY    85  67  54 SE10      29.86R
ALBUQUERQUE NM CLEAR     82  38  20 SE3       30.06R
SALT LAKE CITY CLEAR     66  36  32 S6        30.05R
LOS ANGELES CA CLEAR     70  65  84 SW6       29.81R
BOISE ID       CLEAR     65  36  34 S5        29.99R
SEATTLE WA     MOCLDY    67  55  65 W5        30.00S
$$

*** WEATHER ACROSS MANITOBA...SASKATCHEWAN AND ONTARIO ***
                ***ONTARIO***

CITY           SKY/WX    TMP DP  RH WIND       PRES   REMARKS
GERALDTON      MOCLDY    61  57  88 W5        29.58R
THUNDER BAY    CLEAR     55  55 100 W5        29.66R
SIOUX LOOKOUT  PTCLDY    50  50 100 CALM      29.65S
TORONTO        CLOUDY    75  70  83 SW17      29.78F
BIG TROUT LK   CLOUDY    57  54  88 NW5       29.46F
PICKLE LAKE    NOT AVBL
DRYDEN         CLEAR     55  52  88 SW9       29.66S
KENORA         PTCLDY    55  54  94 SW8       29.69S
$$
                *** MANITOBA***

CITY           SKY/WX    TMP DP  RH WIND       PRES   REMARKS
BRANDON        CLEAR     50  46  87 W7        29.75R
DAUPHIN        CLEAR     54  48  82 NW8       29.70R
ISLAND LAKE    MOCLDY    55  52  88 CALM      29.57S
PILOT MOUND      N/A     50  45  81 SW6         N/A
THE PAS        PTCLDY    55  48  76 SW7       29.61S
THOMPSON       PTCLDY    50  48  93 SW5       29.54R
WINNIPEG       CLEAR     54  48  82 W8        29.71S
CHURCHILL      CLOUDY    52  50  93 E6        29.51S
GILLAM         PTCLDY    55  52  88 W5        29.49S
$$
                ***SASKATCHEWAN***

CITY           SKY/WX    TMP DP  RH WIND       PRES   REMARKS
ESTEVAN        MOCLDY    52  46  82 W2        29.80F
KINDERSLEY     PTCLDY    50  46  87 S2        29.73F
LLOYDMINSTER   MOCLDY    52  43  71 NW6       29.72S
PRINCE ALBERT  MOCLDY    54  50  87 N6        29.68R
REGINA         MOCLDY    54  48  82 S7        29.76S
YORKTON        CLEAR     55  46  71 SW7       29.72F
N. BATTLEFORD  CLOUDY    50  46  87 CALM      29.72F
LA RONGE       PTCLDY    48  48 100 SW3       29.63S
SASKATOON      MOCLDY    54  50  87 SW6       29.72F
SWIFT CURRENT  PTCLDY    54  45  71 S10       29.75S
$$
NOTE: THESE ARE AUTOMATED STATIONS WITH LIMITED QUALITY CONTROL
      "FAIR" INDICATES FEW OR NO CLOUDS BELOW 12,000 FEET WITH NO
      SIGNIFICANT WEATHER AND/OR OBSTRUCTIONS TO VISIBILITY.
      SKY/WX - SKY CONDITION AND SIGNIFICANT WEATHER.
      TMP - AIR TEMPERATURE.    DP   - DEWPOINT TEMPERATURE.
      RH  - RELATIVE HUMIDITY.  PRES - PRESSURE.
      HX  - HEAT INDEX.         WCI  - WIND CHILL INDEX.
$



USA.gov is the U.S. government's official web portal to all federal, state and local government web resources and services.